Location: ??????????
(54.4061°N, 22.6114°E)
Time: 06:32:05
(UTC+00:00)

SJ 16-02 - Pass Details

Date: 23 October 2019
Orbit: 607 x 616 km, 75.0° (Epoch: 12 November)

Event Time Altitude Azimuth Distance (km) Brightness Sun altitude
Rises 17:10:21 0° 335° (NNW) 2,884 5.2 -17.5°
Reaches altitude 10° 17:12:36 10° 336° (NNW) 1,974 4.3 -17.8°
Maximum altitude 17:17:01 81° 65° (ENE) 623 1.2 -18.5°
Enters shadow 17:19:26 26° 150° (SSE) 1,198 2.5 -18.8°
